User: anonymous   Login
Location: Prairie State College
(41.5244°N, 87.6382°W)
Time: 13:09:10
(UTC-06:00)
Language:

ARGOS Delta rocket - Orbit

View from above orbital plane
View from above orbital plane
View from above satellite
View from above satellite

Ground track
Ground track

The orbit data is extracted from the following two-line orbital elements,

1 25637U 99008D   17056.89218247 +.00000052 +00000-0 +21147-4 0  9995
2 25637 096.4874 342.9501 0141028 275.1725 123.9848 14.46498213949236
Epoch (UTC): 25 February 2017 21:24:44
Eccentricity: 0.0141028
inclination: 96.4874°
perigee height: 637 km
apogee height: 837 km
right ascension of ascending node: 342.9501°
argument of perigee: 275.1725°
revolutions per day: 14.46498213
mean anomaly at epoch: 123.9848°
orbit number at epoch: 94923

The dashed part of the orbit path shows where the satellite is in the earth's shadow,  

DLR